Change the Weather History Date:

Monday, September 23, 2013

  Actual Average Record
Temperature  
Mean Temperature 48 °F -  
Max Temperature 60 °F 66 °F 78 °F (2005)
Min Temperature 37 °F 45 °F 33 °F (2014)
Degree Days  
Heating Degree Days 16    
Moisture  
Dew Point 37 °F    
Average Humidity 63    
Maximum Humidity 87    
Minimum Humidity 45    
Precipitation  
Precipitation 0.00 in - - ()
Sea Level Pressure  
Sea Level Pressure 29.88 in    
Wind  
Wind Speed 7 mph (WNW)    
Max Wind Speed 15 mph    
Max Gust Speed 21 mph    
Visibility 10 miles    
Events      
Averages and records for this station are not official NWS values.
T = Trace of Precipitation, MM = Missing Value Source: NWS Daily Summary

Daily Weather History Graph

Daily Weather History Graph

Search for Another Location

Airport or City:

Trip Planner

Search our weather history database for the weather conditions in past years. The results will help you decide how hot, cold, wet, or windy it might be!

Date:

Astronomy

Sep. 23, 2013 Rise Set
Actual Time 6:31 AM EDT 6:37 PM EDT
Civil Twilight 6:02 AM EDT 7:06 PM EDT
Nautical Twilight 5:29 AM EDT 7:39 PM EDT
Astronomical Twilight 4:55 AM EDT 8:13 PM EDT
Moon 8:59 PM EDT (9/23) 10:55 AM EDT (9/23)
Length of Visible Light 13h 03m
Length of Day
12h 06m
Waning Gibbous, 81% of the Moon is Illuminated
Sep 23
Waning Gibbous
Sep 26
Last Quarter
Oct 4
New
Oct 11
First Quarter
Oct 18
Full

Hourly Weather History & Observations

Time (EDT) Temp. Windchill Dew Point Humidity Pressure Visibility Wind Dir Wind Speed Gust Speed Precip Events Conditions
12:15 AM 51.8 °F - 39.2 °F 62% 29.79 in 10.0 mi WNW 9.2 mph - N/A   Clear
12:35 AM 50.0 °F - 37.4 °F 62% 29.80 in 10.0 mi West 5.8 mph - N/A   Clear
12:55 AM 48.2 °F - 39.2 °F 71% 29.80 in 10.0 mi West 11.5 mph - N/A   Clear
1:15 AM 48.2 °F - 39.2 °F 71% 29.81 in 10.0 mi NW 5.8 mph - N/A   Clear
1:35 AM 48.2 °F - 37.4 °F 66% 29.81 in 10.0 mi West 5.8 mph - N/A   Clear
1:55 AM 44.6 °F 42.2 °F 37.4 °F 76% 29.81 in 10.0 mi West 4.6 mph - N/A   Clear
2:15 AM 44.6 °F 43.1 °F 37.4 °F 76% 29.81 in 10.0 mi WSW 3.5 mph - N/A   Clear
2:35 AM 44.6 °F 41.4 °F 37.4 °F 76% 29.81 in 10.0 mi WSW 5.8 mph - N/A   Clear
2:55 AM 46.4 °F 44.3 °F 37.4 °F 71% 29.80 in 10.0 mi West 4.6 mph - N/A   Clear
3:15 AM 46.4 °F 45.2 °F 37.4 °F 71% 29.81 in 10.0 mi NW 3.5 mph - N/A   Clear
3:35 AM 46.4 °F 45.2 °F 37.4 °F 71% 29.81 in 10.0 mi NW 3.5 mph - N/A   Clear
3:55 AM 46.4 °F 43.5 °F 37.4 °F 71% 29.81 in 10.0 mi WNW 5.8 mph - N/A   Clear
4:15 AM 46.4 °F 42.4 °F 37.4 °F 71% 29.82 in 10.0 mi West 8.1 mph - N/A   Clear
4:35 AM 44.6 °F 43.1 °F 37.4 °F 76% 29.82 in 10.0 mi NNE 3.5 mph - N/A   Clear
4:55 AM 42.8 °F 41.1 °F 35.6 °F 76% 29.82 in 10.0 mi WNW 3.5 mph - N/A   Clear
5:15 AM 44.6 °F 42.2 °F 37.4 °F 76% 29.83 in 10.0 mi WNW 4.6 mph - N/A   Clear
5:35 AM 44.6 °F 43.1 °F 37.4 °F 76% 29.83 in 10.0 mi WNW 3.5 mph - N/A   Clear
5:55 AM 41.0 °F 39.0 °F 33.8 °F 76% 29.84 in 10.0 mi West 3.5 mph - N/A   Clear
6:35 AM 37.4 °F 34.9 °F 33.8 °F 87% 29.85 in 10.0 mi WSW 3.5 mph - N/A   Clear
6:55 AM 37.4 °F - 33.8 °F 87% 29.86 in 10.0 mi Calm Calm - N/A   Clear
7:15 AM 39.2 °F - 35.6 °F 87% 29.86 in 10.0 mi Calm Calm - N/A   Clear
7:35 AM 44.6 °F 42.2 °F 37.4 °F 76% 29.87 in 10.0 mi West 4.6 mph - N/A   Clear
7:55 AM 48.2 °F - 37.4 °F 66% 29.87 in 10.0 mi WNW 9.2 mph - N/A   Clear
8:15 AM 48.2 °F - 37.4 °F 66% 29.86 in 10.0 mi WNW 8.1 mph - N/A   Clear
8:35 AM 51.8 °F - 37.4 °F 58% 29.87 in 10.0 mi WNW 6.9 mph - N/A   Clear
8:55 AM 51.8 °F - 35.6 °F 54% 29.87 in 10.0 mi WNW 6.9 mph - N/A   Clear
9:15 AM 53.6 °F - 35.6 °F 51% 29.88 in 10.0 mi NW 9.2 mph 18.4 mph N/A   Clear
9:35 AM 53.6 °F - 37.4 °F 54% 29.87 in 10.0 mi NW 6.9 mph 17.3 mph N/A   Clear
9:55 AM 55.4 °F - 37.4 °F 51% 29.88 in 10.0 mi NNW 9.2 mph - N/A   Clear
10:15 AM 55.4 °F - 37.4 °F 51% 29.88 in 10.0 mi West 13.8 mph 18.4 mph N/A   Clear
10:35 AM 55.4 °F - 37.4 °F 51% 29.88 in 10.0 mi NW 10.4 mph 16.1 mph N/A   Clear
10:55 AM 57.2 °F - 37.4 °F 48% 29.88 in 10.0 mi NW 10.4 mph 16.1 mph N/A   Clear
11:15 AM 57.2 °F - 37.4 °F 48% 29.88 in 10.0 mi West 15.0 mph 19.6 mph N/A   Clear
11:35 AM 57.2 °F - 37.4 °F 48% 29.88 in 10.0 mi WNW 15.0 mph - N/A   Clear
11:55 AM 57.2 °F - 39.2 °F 51% 29.88 in 10.0 mi West 10.4 mph 19.6 mph N/A   Clear
12:15 PM 59.0 °F - 39.2 °F 48% 29.88 in 10.0 mi NW 6.9 mph 19.6 mph N/A   Clear
12:35 PM 59.0 °F - 39.2 °F 48% 29.87 in 10.0 mi West 11.5 mph 18.4 mph N/A   Clear
12:55 PM 59.0 °F - 39.2 °F 48% 29.88 in 10.0 mi West 12.7 mph 17.3 mph N/A   Clear
1:15 PM 60.8 °F - 39.2 °F 45% 29.88 in 10.0 mi West 13.8 mph 18.4 mph N/A   Clear
1:35 PM 60.8 °F - 39.2 °F 45% 29.88 in 10.0 mi WNW 10.4 mph 17.3 mph N/A   Partly Cloudy
1:55 PM 60.8 °F - 39.2 °F 45% 29.88 in 10.0 mi WSW 11.5 mph 20.7 mph N/A   Mostly Cloudy
2:15 PM 60.8 °F - 39.2 °F 45% 29.88 in 10.0 mi West 13.8 mph 18.4 mph N/A   Mostly Cloudy
2:35 PM 60.8 °F - 39.2 °F 45% 29.89 in 10.0 mi WNW 9.2 mph 17.3 mph N/A   Mostly Cloudy
2:56 PM 60.8 °F - 39.2 °F 45% 29.89 in 10.0 mi West 10.4 mph 18.4 mph N/A   Overcast
3:15 PM 60.8 °F - 41.0 °F 48% 29.89 in 10.0 mi West 10.4 mph 18.4 mph N/A   Overcast
3:35 PM 59.0 °F - 39.2 °F 48% 29.88 in 10.0 mi West 13.8 mph 18.4 mph N/A   Mostly Cloudy
3:55 PM 60.8 °F - 39.2 °F 45% 29.89 in 10.0 mi West 12.7 mph 18.4 mph N/A   Mostly Cloudy
4:15 PM 57.2 °F - 39.2 °F 51% 29.89 in 10.0 mi West 8.1 mph - N/A   Overcast
4:35 PM 57.2 °F - 39.2 °F 51% 29.90 in 10.0 mi West 8.1 mph - N/A   Overcast
4:55 PM 57.2 °F - 39.2 °F 51% 29.90 in 10.0 mi West 12.7 mph 19.6 mph N/A   Mostly Cloudy
5:15 PM 57.2 °F - 39.2 °F 51% 29.90 in 10.0 mi WNW 12.7 mph 18.4 mph N/A   Partly Cloudy
5:35 PM 55.4 °F - 37.4 °F 51% 29.91 in 10.0 mi West 12.7 mph 17.3 mph N/A   Partly Cloudy
5:55 PM 55.4 °F - 37.4 °F 51% 29.92 in 10.0 mi West 9.2 mph - N/A   Mostly Cloudy
6:15 PM 55.4 °F - 39.2 °F 54% 29.93 in 10.0 mi WNW 11.5 mph - N/A   Overcast
6:35 PM 51.8 °F - 37.4 °F 58% 29.94 in 10.0 mi WNW 5.8 mph - N/A   Scattered Clouds
6:55 PM 51.8 °F - 37.4 °F 58% 29.94 in 10.0 mi WNW 4.6 mph - N/A   Clear
7:15 PM 50.0 °F - 37.4 °F 62% 29.95 in 10.0 mi WNW 6.9 mph - N/A   Clear
7:35 PM 48.2 °F - 37.4 °F 66% 29.96 in 10.0 mi WNW 5.8 mph - N/A   Clear
7:55 PM 48.2 °F - 37.4 °F 66% 29.96 in 10.0 mi West 5.8 mph - N/A   Clear
8:16 PM 44.6 °F 41.4 °F 37.4 °F 76% 29.97 in 10.0 mi WSW 5.8 mph - N/A   Clear
8:35 PM 44.6 °F 43.1 °F 37.4 °F 76% 29.97 in 10.0 mi West 3.5 mph - N/A   Clear
8:55 PM 42.8 °F - 35.6 °F 76% 29.97 in 10.0 mi Calm Calm - N/A   Clear
9:15 PM 41.0 °F - 35.6 °F 81% 29.97 in 10.0 mi Calm Calm - N/A   Clear
9:35 PM 39.2 °F 35.0 °F 35.6 °F 87% 29.97 in 10.0 mi West 5.8 mph - N/A   Clear
9:55 PM 44.6 °F 39.7 °F 37.4 °F 76% 29.97 in 10.0 mi WNW 9.2 mph - N/A   Clear
10:15 PM 44.6 °F 40.7 °F 35.6 °F 71% 29.97 in 10.0 mi WNW 6.9 mph - N/A   Clear
10:35 PM 44.6 °F 41.4 °F 35.6 °F 71% 29.97 in 10.0 mi WNW 5.8 mph - N/A   Clear
10:55 PM 44.6 °F 41.4 °F 35.6 °F 71% 29.96 in 10.0 mi West 5.8 mph - N/A   Clear
11:15 PM 39.2 °F 35.0 °F 33.8 °F 81% 29.96 in 10.0 mi SSE 5.8 mph - N/A   Clear
11:35 PM 37.4 °F - 33.8 °F 87% 29.96 in 10.0 mi Calm Calm - N/A   Clear
11:55 PM 37.4 °F - 33.8 °F 87% 29.96 in 10.0 mi Calm Calm - N/A   Clear